,,Stat5,,Stat1,,Stat2,,Stat3,,Stat4,,Wind1,,Wind1,
time,status,PA1M_AVG,status,PR1M_SUM,status,RH1M_AVG,status,SR1M_AVG,status,TA1M_AVG,status,W1dAve1m,status,W1sAve1m,
2000-11-02, 00:00:00,VALID,917.284,VALID,0,VALID,98.0598,VALID,0.101885,VALID,19.3625,VALID,175,VALID,0,
2000-11-02, 00:01:00,VALID,917.289,VALID,0,VALID,98.0661,VALID,0.0849042,VALID,19.3595,VALID,175,VALID,0,
2000-11-02, 00:02:00,VALID,917.29,VALID,0,VALID,98.0814,VALID,0.0339617,VALID,19.3635,VALID,175,VALID,0,
2000-11-02, 00:03:00,VALID,917.289,VALID,0,VALID,98.1221,VALID,-0.0169808,VALID,19.364,VALID,175,VALID,0,
2000-11-02, 00:04:00,VALID,917.298,VALID,0,VALID,98.1246,VALID,0,VALID,19.3741,VALID,175,VALID,0,
2000-11-02, 00:05:00,VALID,917.285,VALID,0,VALID,98.1463,VALID,-0.0339617,VALID,19.3903,VALID,188,VALID,0,
2000-11-02, 00:06:00,VALID,917.292,VALID,0,VALID,98.0433,VALID,-0.0679233,VALID,19.3739,VALID,220,VALID,0,
2000-11-02, 00:07:00,VALID,917.294,VALID,0,VALID,97.9199,VALID,0,VALID,19.3481,VALID,220,VALID,0,
2000-11-02, 00:08:00,VALID,917.306,VALID,0,VALID,97.9364,VALID,-0.0169808,VALID,19.3351,VALID,220,VALID,0,
2000-11-02, 00:09:00,VALID,917.29,VALID,0,VALID,97.78,VALID,-0.0339617,VALID,19.2899,VALID,220,VALID,0,
2000-11-02, 00:10:00,VALID,917.292,VALID,0,VALID,97.4609,VALID,-0.0169808,VALID,19.2285,VALID,209,VALID,0,
2000-11-02, 00:11:00,VALID,917.291,VALID,0,VALID,97.0603,VALID,-0.0339617,VALID,19.1575,VALID,205,VALID,0,
2000-11-02, 00:12:00,VALID,917.302,VALID,0,VALID,97.3413,VALID,0,VALID,19.1284,VALID,205,VALID,0,
2000-11-02, 00:13:00,VALID,917.302,VALID,0,VALID,97.4876,VALID,0,VALID,19.1348,VALID,205,VALID,0,
2000-11-02, 00:14:00,VALID,917.304,VALID,0,VALID,97.6719,VALID,0,VALID,19.1604,VALID,205,VALID,0,
2000-11-02, 00:15:00,VALID,917.302,VALID,0,VALID,97.8004,VALID,-0.0169808,VALID,19.1868,VALID,205,VALID,0,
2000-11-02, 00:16:00,VALID,917.308,VALID,0,VALID,97.8169,VALID,-0.0169808,VALID,19.1796,VALID,205,VALID,0,
2000-11-02, 00:17:00,VALID,917.293,VALID,0,VALID,97.7953,VALID,0,VALID,19.1798,VALID,205,VALID,0,
2000-11-02, 00:18:00,VALID,917.278,VALID,0,VALID,97.7927,VALID,0,VALID,19.196,VALID,205,VALID,0,
2000-11-02, 00:19:00,VALID,917.252,VALID,0,VALID,97.7851,VALID,0,VALID,19.2054,VALID,205,VALID,0,
2000-11-02, 00:20:00,VALID,917.217,VALID,0,VALID,97.7622,VALID,-0.0169808,VALID,19.2184,VALID,205,VALID,0,
2000-11-02, 00:21:00,VALID,917.179,VALID,0,VALID,97.8296,VALID,-0.0169808,VALID,19.2574,VALID,205,VALID,0,
2000-11-02, 00:22:00,VALID,917.131,VALID,0,VALID,97.663,VALID,-0.0169808,VALID,19.2636,VALID,228,VALID,0,
2000-11-02, 00:23:00,VALID,917.098,VALID,0,VALID,97.3413,VALID,0.0169808,VALID,19.2285,VALID,230,VALID,0,
2000-11-02, 00:24:00,VALID,917.047,VALID,0,VALID,97.2218,VALID,-0.0339617,VALID,19.1967,VALID,229,VALID,0,
2000-11-02, 00:25:00,VALID,917.009,VALID,0,VALID,97.1824,VALID,-0.0339617,VALID,19.1478,VALID,231,VALID,0,
2000-11-02, 00:26:00,VALID,916.964,VALID,0,VALID,97.2968,VALID,0,VALID,19.1254,VALID,232,VALID,0.142923,
2000-11-02, 00:27:00,VALID,916.941,VALID,0,VALID,97.471,VALID,-0.0169808,VALID,19.1252,VALID,232,VALID,0,
2000-11-02, 00:28:00,VALID,916.899,VALID,0,VALID,97.6325,VALID,0,VALID,19.1284,VALID,232,VALID,0,
2000-11-02, 00:29:00,VALID,916.887,VALID,0,VALID,97.5155,VALID,0,VALID,19.1157,VALID,230,VALID,0,
2000-11-02, 00:30:00,VALID,916.88,VALID,0,VALID,96.9509,VALID,-0.0339617,VALID,19.019,VALID,168,VALID,0,
2000-11-02, 00:31:00,VALID,916.872,VALID,0,VALID,96.9929,VALID,-0.0339617,VALID,18.9805,VALID,156,VALID,0,
2000-11-02, 00:32:00,VALID,916.882,VALID,0,VALID,97.4367,VALID,0,VALID,19.0026,VALID,156,VALID,0,
2000-11-02, 00:33:00,VALID,916.89,VALID,0,VALID,97.6313,VALID,-0.0509425,VALID,19.0223,VALID,156,VALID,0,
2000-11-02, 00:34:00,VALID,916.907,VALID,0,VALID,97.766,VALID,-0.0339617,VALID,19.0513,VALID,156,VALID,0,
2000-11-02, 00:35:00,VALID,916.895,VALID,0,VALID,97.7533,VALID,-0.0509425,VALID,19.0675,VALID,156,VALID,0,
2000-11-02, 00:36:00,VALID,916.905,VALID,0,VALID,97.719,VALID,-0.0339617,VALID,19.071,VALID,156,VALID,0,
2000-11-02, 00:37:00,VALID,916.886,VALID,0,VALID,97.6249,VALID,0,VALID,19.068,VALID,153,VALID,0,
2000-11-02, 00:38:00,VALID,916.884,VALID,0,VALID,97.4901,VALID,0,VALID,19.0186,VALID,148,VALID,0,
2000-11-02, 00:39:00,VALID,916.857,VALID,0,VALID,97.8792,VALID,0,VALID,19.071,VALID,147,VALID,0,
2000-11-02, 00:40:00,VALID,916.823,VALID,0,VALID,98.0013,VALID,-0.0169808,VALID,19.1224,VALID,150,VALID,0,
2000-11-02, 00:41:00,VALID,916.786,VALID,0,VALID,98.0814,VALID,0,VALID,19.1416,VALID,167,VALID,0,
2000-11-02, 00:42:00,VALID,916.753,VALID,0,VALID,98.075,VALID,-0.0169808,VALID,19.1674,VALID,182,VALID,0,
2000-11-02, 00:43:00,VALID,916.738,VALID,0,VALID,98.0165,VALID,0,VALID,19.157,VALID,187,VALID,0,
2000-11-02, 00:44:00,VALID,916.732,VALID,0,VALID,97.7838,VALID,0,VALID,19.1512,VALID,189,VALID,0,
2000-11-02, 00:45:00,VALID,916.732,VALID,0,VALID,97.5575,VALID,0,VALID,19.1194,VALID,188,VALID,0,
2000-11-02, 00:46:00,VALID,916.715,VALID,0,VALID,97.4558,VALID,0,VALID,19.0839,VALID,172,VALID,0,
2000-11-02, 00:47:00,VALID,916.705,VALID,0,VALID,97.527,VALID,0,VALID,19.0645,VALID,168,VALID,0,
2000-11-02, 00:48:00,VALID,916.703,VALID,0,VALID,97.5677,VALID,-0.0339617,VALID,19.0444,VALID,166,VALID,0,
2000-11-02, 00:49:00,VALID,916.69,VALID,0,VALID,97.5143,VALID,0,VALID,19.0317,VALID,165,VALID,0,
2000-11-02, 00:50:00,VALID,916.69,VALID,0,VALID,97.4049,VALID,-0.0169808,VALID,19.0128,VALID,159,VALID,0,
2000-11-02, 00:51:00,VALID,916.672,VALID,0,VALID,97.5867,VALID,0,VALID,19.0253,VALID,156,VALID,0,
2000-11-02, 00:52:00,VALID,916.672,VALID,0,VALID,97.911,VALID,-0.0169808,VALID,19.0638,VALID,163,VALID,0,
2000-11-02, 00:53:00,VALID,916.64,VALID,0,VALID,98.1793,VALID,-0.0339617,VALID,19.1284,VALID,169,VALID,0,
2000-11-02, 00:54:00,VALID,916.607,VALID,0,VALID,98.1272,VALID,0,VALID,19.1515,VALID,169,VALID,0,
2000-11-02, 00:55:00,VALID,916.575,VALID,0,VALID,97.9581,VALID,-0.0339617,VALID,19.1388,VALID,169,VALID,0,
2000-11-02, 00:56:00,VALID,916.553,VALID,0,VALID,98.0534,VALID,-0.0169808,VALID,19.1423,VALID,171,VALID,0,
2000-11-02, 00:57:00,VALID,916.519,VALID,0,VALID,98.0814,VALID,-0.0339617,VALID,19.1453,VALID,171,VALID,0,
2000-11-02, 00:58:00,VALID,916.502,VALID,0,VALID,97.9428,VALID,-0.0679233,VALID,19.1231,VALID,171,VALID,0,
2000-11-02, 00:59:00,VALID,916.491,VALID,0,VALID,97.6834,VALID,-0.0679233,VALID,19.0647,VALID,170,VALID,0,
2000-11-02, 01:00:00,VALID,916.486,VALID,0,VALID,97.1239,VALID,-0.0849042,VALID,18.9551,VALID,149,VALID,0,
2000-11-02, 01:01:00,VALID,916.49,VALID,0,VALID,97.1468,VALID,-0.0169808,VALID,18.8938,VALID,141,VALID,0,
2000-11-02, 01:02:00,VALID,916.487,VALID,0,VALID,97.3629,VALID,-0.0509425,VALID,18.8838,VALID,141,VALID,0,
2000-11-02, 01:03:00,VALID,916.474,VALID,0,VALID,97.6872,VALID,-0.0509425,VALID,18.9159,VALID,141,VALID,0,
2000-11-02, 01:04:00,VALID,916.469,VALID,0,VALID,97.836,VALID,-0.0339617,VALID,18.9348,VALID,141,VALID,0,
2000-11-02, 01:05:00,VALID,916.438,VALID,0,VALID,97.8449,VALID,0,VALID,18.9574,VALID,141,VALID,0,
2000-11-02, 01:06:00,VALID,916.42,VALID,0,VALID,97.7889,VALID,-0.0339617,VALID,18.9443,VALID,141,VALID,0,
2000-11-02, 01:07:00,VALID,916.4,VALID,0,VALID,97.7546,VALID,-0.0679233,VALID,18.9477,VALID,141,VALID,0,
2000-11-02, 01:08:00,VALID,916.391,VALID,0,VALID,97.7953,VALID,-0.0339617,VALID,18.9641,VALID,141,VALID,0,
2000-11-02, 01:09:00,VALID,916.376,VALID,0,VALID,97.8055,VALID,-0.0169808,VALID,18.9641,VALID,141,VALID,0,
2000-11-02, 01:10:00,VALID,916.36,VALID,0,VALID,97.986,VALID,-0.0169808,VALID,18.9895,VALID,157,VALID,0,
2000-11-02, 01:11:00,VALID,916.327,VALID,0,VALID,98.1157,VALID,-0.0169808,VALID,19.0148,VALID,170,VALID,0,
2000-11-02, 01:12:00,VALID,916.319,VALID,0,VALID,98.0789,VALID,-0.0169808,VALID,19.0186,VALID,174,VALID,0,
2000-11-02, 01:13:00,VALID,916.289,VALID,0,VALID,98.0801,VALID,-0.0169808,VALID,19.0093,VALID,180,VALID,0,
2000-11-02, 01:14:00,VALID,916.286,VALID,0,VALID,98.056,VALID,-0.0339617,VALID,18.9863,VALID,180,VALID,0,
2000-11-02, 01:15:00,VALID,916.275,VALID,0,VALID,98.0344,VALID,-0.0169808,VALID,18.98,VALID,180,VALID,0,
2000-11-02, 01:16:00,VALID,916.275,VALID,0,VALID,97.7635,VALID,-0.0339617,VALID,18.942,VALID,180,VALID,0,
2000-11-02, 01:17:00,VALID,916.284,VALID,0,VALID,97.3973,VALID,0,VALID,18.867,VALID,180,VALID,0,
2000-11-02, 01:18:00,VALID,916.301,VALID,0,VALID,97.1709,VALID,0,VALID,18.8116,VALID,180,VALID,0,
2000-11-02, 01:19:00,VALID,916.321,VALID,0,VALID,97.1633,VALID,-0.0169808,VALID,18.7795,VALID,180,VALID,0,
2000-11-02, 01:20:00,VALID,916.334,VALID,0,VALID,97.1582,VALID,-0.0509425,VALID,18.7311,VALID,180,VALID,0,
2000-11-02, 01:21:00,VALID,916.35,VALID,0,VALID,97.2587,VALID,-0.0509425,VALID,18.7249,VALID,180,VALID,0,
2000-11-02, 01:22:00,VALID,916.363,VALID,0,VALID,97.3299,VALID,-0.0509425,VALID,18.7152,VALID,180,VALID,0,
2000-11-02, 01:23:00,VALID,916.38,VALID,0,VALID,97.3693,VALID,-0.0679233,VALID,18.7189,VALID,180,VALID,0,
2000-11-02, 01:24:00,VALID,916.385,VALID,0,VALID,97.4316,VALID,-0.0679233,VALID,18.732,VALID,180,VALID,0,
2000-11-02, 01:25:00,VALID,916.374,VALID,0,VALID,97.5028,VALID,0,VALID,18.7214,VALID,180,VALID,0,
2000-11-02, 01:26:00,VALID,916.359,VALID,0,VALID,97.7571,VALID,-0.0339617,VALID,18.7636,VALID,180,VALID,0,
2000-11-02, 01:27:00,VALID,916.338,VALID,0,VALID,98.0941,VALID,-0.0169808,VALID,18.8351,VALID,180,VALID,0,
2000-11-02, 01:28:00,VALID,916.33,VALID,0,VALID,98.2912,VALID,-0.0169808,VALID,18.9032,VALID,180,VALID,0,
2000-11-02, 01:29:00,VALID,916.311,VALID,0,VALID,98.412,VALID,-0.0339617,VALID,18.9547,VALID,180,VALID,0,
2000-11-02, 01:30:00,VALID,916.306,VALID,0,VALID,98.4375,VALID,-0.0339617,VALID,18.9872,VALID,180,VALID,0,
2000-11-02, 01:31:00,VALID,916.307,VALID,0,VALID,98.4489,VALID,0,VALID,18.9964,VALID,180,VALID,0,
2000-11-02, 01:32:00,VALID,916.305,VALID,0,VALID,98.4209,VALID,0.0509425,VALID,18.9987,VALID,180,VALID,0,
2000-11-02, 01:33:00,VALID,916.304,VALID,0,VALID,98.281,VALID,0.0849042,VALID,18.9724,VALID,200,VALID,0,
2000-11-02, 01:34:00,VALID,916.309,VALID,0,VALID,98.1234,VALID,0.0679233,VALID,18.9073,VALID,213,VALID,0,
2000-11-02, 01:35:00,VALID,916.288,VALID,0,VALID,98.0064,VALID,0.0849042,VALID,18.8623,VALID,217,VALID,0,
2000-11-02, 01:36:00,VALID,916.293,VALID,0,VALID,97.967,VALID,0.101885,VALID,18.836,VALID,214,VALID,0.157986,
2000-11-02, 01:37:00,VALID,916.271,VALID,0,VALID,97.9453,VALID,0.0849042,VALID,18.827,VALID,215,VALID,0.520182,
2000-11-02, 01:38:00,VALID,916.257,VALID,0,VALID,97.9581,VALID,0.0849042,VALID,18.8206,VALID,210,VALID,0.500422,
2000-11-02, 01:39:00,VALID,916.25,VALID,0,VALID,98.0636,VALID,0.0849042,VALID,18.834,VALID,226,VALID,0.292352,
2000-11-02, 01:40:00,VALID,916.233,VALID,0,VALID,98.1513,VALID,0.0849042,VALID,18.8462,VALID,226,VALID,0.0422297,
2000-11-02, 01:41:00,VALID,916.227,VALID,0,VALID,98.2035,VALID,0.0679233,VALID,18.8596,VALID,226,VALID,0,
2000-11-02, 01:42:00,VALID,916.238,VALID,0,VALID,98.2404,VALID,0.0509425,VALID,18.866,VALID,226,VALID,0,
2000-11-02, 01:43:00,VALID,916.234,VALID,0,VALID,98.2505,VALID,0.0509425,VALID,18.869,VALID,226,VALID,0,
2000-11-02, 01:44:00,VALID,916.24,VALID,0,VALID,98.2187,VALID,0.0509425,VALID,18.8822,VALID,250,VALID,0.0494088,
2000-11-02, 01:45:00,VALID,916.235,VALID,0,VALID,98.2315,VALID,0.0679233,VALID,18.9205,VALID,294,VALID,0.224466,
2000-11-02, 01:46:00,VALID,916.238,VALID,0,VALID,98.131,VALID,0.101885,VALID,18.9336,VALID,294,VALID,0,
2000-11-02, 01:47:00,VALID,916.242,VALID,0,VALID,97.7788,VALID,0,VALID,18.8797,VALID,294,VALID,0,
2000-11-02, 01:48:00,VALID,916.25,VALID,0,VALID,97.6287,VALID,-0.0339617,VALID,18.8675,VALID,239,VALID,0,
2000-11-02, 01:49:00,VALID,916.267,VALID,0,VALID,97.5702,VALID,-0.0509425,VALID,18.8675,VALID,187,VALID,0.208594,
2000-11-02, 01:50:00,VALID,916.278,VALID,0,VALID,97.1875,VALID,-0.0679233,VALID,18.822,VALID,164,VALID,0.388421,
2000-11-02, 01:51:00,VALID,916.297,VALID,0,VALID,96.9319,VALID,-0.0679233,VALID,18.7609,VALID,157,VALID,0.396429,
2000-11-02, 01:52:00,VALID,916.322,VALID,0,VALID,96.923,VALID,-0.0169808,VALID,18.7149,VALID,157,VALID,0.0650391,
2000-11-02, 01:53:00,VALID,916.337,VALID,0,VALID,96.97,VALID,-0.0169808,VALID,18.699,VALID,157,VALID,0,
2000-11-02, 01:54:00,VALID,916.334,VALID,0,VALID,97.1086,VALID,-0.0339617,VALID,18.693,VALID,157,VALID,0,
2000-11-02, 01:55:00,VALID,916.333,VALID,0,VALID,97.3757,VALID,-0.0169808,VALID,18.6926,VALID,157,VALID,0,
2000-11-02, 01:56:00,VALID,916.307,VALID,0,VALID,97.4685,VALID,-0.0339617,VALID,18.6995,VALID,157,VALID,0,
2000-11-02, 01:57:00,VALID,916.304,VALID,0,VALID,97.5015,VALID,-0.0169808,VALID,18.6965,VALID,157,VALID,0,
2000-11-02, 01:58:00,VALID,916.271,VALID,0,VALID,97.5486,VALID,-0.0509425,VALID,18.6903,VALID,157,VALID,0,
2000-11-02, 01:59:00,VALID,916.27,VALID,0,VALID,97.5855,VALID,0.0169808,VALID,18.6831,VALID,157,VALID,0,
2000-11-02, 02:00:00,VALID,916.268,VALID,0,VALID,97.6491,VALID,-0.0339617,VALID,18.7226,VALID,157,VALID,0,
2000-11-02, 02:01:00,VALID,916.285,VALID,0,VALID,97.6109,VALID,-0.0169808,VALID,18.7186,VALID,157,VALID,0,
2000-11-02, 02:02:00,VALID,916.291,VALID,0,VALID,97.5829,VALID,0,VALID,18.7119,VALID,157,VALID,0,
2000-11-02, 02:03:00,VALID,916.299,VALID,0,VALID,97.7711,VALID,-0.0339617,VALID,18.7579,VALID,157,VALID,0,
2000-11-02, 02:04:00,VALID,916.314,VALID,0,VALID,97.7788,VALID,-0.0339617,VALID,18.7904,VALID,157,VALID,0,
2000-11-02, 02:05:00,VALID,916.326,VALID,0,VALID,97.4469,VALID,-0.0169808,VALID,18.7542,VALID,165,VALID,0,
2000-11-02, 02:06:00,VALID,916.331,VALID,0,VALID,97.4151,VALID,0,VALID,18.7412,VALID,179,VALID,0,
2000-11-02, 02:07:00,VALID,916.33,VALID,0,VALID,97.3261,VALID,0,VALID,18.7382,VALID,215,VALID,0,
2000-11-02, 02:08:00,VALID,916.344,VALID,0,VALID,97.2727,VALID,0,VALID,18.7221,VALID,243,VALID,0,
2000-11-02, 02:09:00,VALID,916.345,VALID,0,VALID,97.2091,VALID,-0.0169808,VALID,18.69,VALID,241,VALID,0,
2000-11-02, 02:10:00,VALID,916.351,VALID,0,VALID,97.382,VALID,0,VALID,18.6769,VALID,238,VALID,0,
2000-11-02, 02:11:00,VALID,916.345,VALID,0,VALID,97.5689,VALID,0.0169808,VALID,18.6734,VALID,237,VALID,0,
2000-11-02, 02:12:00,VALID,916.326,VALID,0,VALID,97.7215,VALID,0,VALID,18.6935,VALID,236,VALID,0,
2000-11-02, 02:13:00,VALID,916.324,VALID,0,VALID,97.836,VALID,-0.0169808,VALID,18.6963,VALID,235,VALID,0,
2000-11-02, 02:14:00,VALID,916.336,VALID,0,VALID,97.8881,VALID,0,VALID,18.6933,VALID,229,VALID,0,
2000-11-02, 02:15:00,VALID,916.351,VALID,0,VALID,97.9301,VALID,-0.0169808,VALID,18.6868,VALID,220,VALID,0,
2000-11-02, 02:16:00,VALID,916.381,VALID,0,VALID,97.9771,VALID,0.0169808,VALID,18.6769,VALID,218,VALID,0,
2000-11-02, 02:17:00,VALID,916.413,VALID,0,VALID,97.9949,VALID,-0.0509425,VALID,18.678,VALID,206,VALID,0,
2000-11-02, 02:18:00,VALID,916.428,VALID,0,VALID,98.0661,VALID,-0.101885,VALID,18.6589,VALID,196,VALID,0,
2000-11-02, 02:19:00,VALID,916.451,VALID,0,VALID,98.0801,VALID,-0.101885,VALID,18.6557,VALID,175,VALID,0,
2000-11-02, 02:20:00,VALID,916.471,VALID,0,VALID,97.9415,VALID,-0.101885,VALID,18.6075,VALID,172,VALID,0,
2000-11-02, 02:21:00,VALID,916.452,VALID,0,VALID,98.0967,VALID,-0.135847,VALID,18.5913,VALID,171,VALID,0,
2000-11-02, 02:22:00,VALID,916.419,VALID,0,VALID,98.131,VALID,-0.118866,VALID,18.5948,VALID,171,VALID,0,
2000-11-02, 02:23:00,VALID,916.39,VALID,0,VALID,98.0013,VALID,-0.101885,VALID,18.5528,VALID,171,VALID,0,
2000-11-02, 02:24:00,VALID,916.348,VALID,0,VALID,97.808,VALID,-0.118866,VALID,18.4981,VALID,171,VALID,0,
2000-11-02, 02:25:00,VALID,916.309,VALID,0,VALID,97.7521,VALID,-0.101885,VALID,18.4688,VALID,171,VALID,0,
2000-11-02, 02:26:00,VALID,916.274,VALID,0,VALID,97.8106,VALID,-0.135847,VALID,18.4619,VALID,171,VALID,0,
2000-11-02, 02:27:00,VALID,916.258,VALID,0,VALID,98.0178,VALID,-0.101885,VALID,18.4879,VALID,171,VALID,0,
2000-11-02, 02:28:00,VALID,916.244,VALID,0,VALID,98.2048,VALID,-0.118866,VALID,18.5237,VALID,171,VALID,0,
2000-11-02, 02:29:00,VALID,916.253,VALID,0,VALID,98.3408,VALID,-0.101885,VALID,18.562,VALID,171,VALID,0,
2000-11-02, 02:30:00,VALID,916.252,VALID,0,VALID,98.4756,VALID,-0.101885,VALID,18.6111,VALID,171,VALID,0,
2000-11-02, 02:31:00,VALID,916.253,VALID,0,VALID,98.4756,VALID,-0.118866,VALID,18.6171,VALID,171,VALID,0,
2000-11-02, 02:32:00,VALID,916.265,VALID,0,VALID,98.4362,VALID,-0.0339617,VALID,18.6164,VALID,171,VALID,0,
2000-11-02, 02:33:00,VALID,916.269,VALID,0,VALID,98.454,VALID,0,VALID,18.5901,VALID,171,VALID,0,
2000-11-02, 02:34:00,VALID,916.291,VALID,0,VALID,98.398,VALID,-0.0169808,VALID,18.5733,VALID,171,VALID,0,
2000-11-02, 02:35:00,VALID,916.295,VALID,0,VALID,98.4196,VALID,-0.0169808,VALID,18.5641,VALID,173,VALID,0,
2000-11-02, 02:36:00,VALID,916.303,VALID,0,VALID,98.5176,VALID,0,VALID,18.58,VALID,173,VALID,0,
2000-11-02, 02:37:00,VALID,916.286,VALID,0,VALID,98.6104,VALID,0,VALID,18.5996,VALID,173,VALID,0,
2000-11-02, 02:38:00,VALID,916.283,VALID,0,VALID,98.5366,VALID,-0.0169808,VALID,18.5864,VALID,173,VALID,0,
2000-11-02, 02:39:00,VALID,916.26,VALID,0,VALID,98.2594,VALID,0,VALID,18.5057,VALID,173,VALID,0,
2000-11-02, 02:40:00,VALID,916.239,VALID,0,VALID,98.0712,VALID,0,VALID,18.4376,VALID,173,VALID,0,
2000-11-02, 02:41:00,VALID,916.222,VALID,0,VALID,97.8907,VALID,0,VALID,18.3862,VALID,173,VALID,0,
2000-11-02, 02:42:00,VALID,916.216,VALID,0,VALID,97.911,VALID,0,VALID,18.3735,VALID,173,VALID,0,
2000-11-02, 02:43:00,VALID,916.214,VALID,0,VALID,97.9809,VALID,0,VALID,18.3834,VALID,173,VALID,0,
2000-11-02, 02:44:00,VALID,916.216,VALID,0,VALID,98.1806,VALID,0,VALID,18.3959,VALID,173,VALID,0,
2000-11-02, 02:45:00,VALID,916.224,VALID,0,VALID,98.1488,VALID,-0.0169808,VALID,18.3924,VALID,202,VALID,0,
2000-11-02, 02:46:00,VALID,916.222,VALID,0,VALID,98.0293,VALID,-0.0169808,VALID,18.3601,VALID,220,VALID,0,
2000-11-02, 02:47:00,VALID,916.238,VALID,0,VALID,98.0229,VALID,-0.0679233,VALID,18.3483,VALID,222,VALID,0,
2000-11-02, 02:48:00,VALID,916.252,VALID,0,VALID,98.0979,VALID,-0.0679233,VALID,18.3391,VALID,231,VALID,0.0215872,
2000-11-02, 02:49:00,VALID,916.268,VALID,0,VALID,98.2009,VALID,-0.0679233,VALID,18.3391,VALID,221,VALID,0.639358,
2000-11-02, 02:50:00,VALID,916.298,VALID,0,VALID,98.2671,VALID,-0.118866,VALID,18.3553,VALID,212,VALID,0.523003,
2000-11-02, 02:51:00,VALID,916.321,VALID,0,VALID,98.3573,VALID,-0.101885,VALID,18.3682,VALID,203,VALID,0.408361,
2000-11-02, 02:52:00,VALID,916.322,VALID,0,VALID,98.3751,VALID,-0.101885,VALID,18.3811,VALID,204,VALID,0.26912,
2000-11-02, 02:53:00,VALID,916.32,VALID,0,VALID,98.4082,VALID,-0.0849042,VALID,18.3975,VALID,203,VALID,0.172676,
2000-11-02, 02:54:00,VALID,916.324,VALID,0,VALID,98.3764,VALID,-0.101885,VALID,18.4003,VALID,199,VALID,0.145032,
2000-11-02, 02:55:00,VALID,916.319,VALID,0,VALID,98.4247,VALID,-0.101885,VALID,18.4171,VALID,183,VALID,0,
2000-11-02, 02:56:00,VALID,916.299,VALID,0,VALID,98.5328,VALID,-0.101885,VALID,18.4556,VALID,174,VALID,0,
2000-11-02, 02:57:00,VALID,916.302,VALID,0,VALID,98.5748,VALID,-0.0679233,VALID,18.5078,VALID,177,VALID,0,
2000-11-02, 02:58:00,VALID,916.289,VALID,0,VALID,98.4476,VALID,-0.101885,VALID,18.4976,VALID,190,VALID,0.0448718,
2000-11-02, 02:59:00,VALID,916.304,VALID,0,VALID,98.4031,VALID,-0.101885,VALID,18.4937,VALID,189,VALID,0.705653,
2000-11-02, 03:00:00,VALID,916.319,VALID,0,VALID,98.4349,VALID,-0.0849042,VALID,18.5168,VALID,200,VALID,0.599507,
2000-11-02, 03:01:00,VALID,916.331,VALID,0,VALID,98.4667,VALID,-0.101885,VALID,18.5362,VALID,195,VALID,0.692145,
2000-11-02, 03:02:00,VALID,916.325,VALID,0,VALID,98.4514,VALID,-0.101885,VALID,18.5424,VALID,191,VALID,0.71441,
2000-11-02, 03:03:00,VALID,916.333,VALID,0,VALID,98.5137,VALID,-0.0849042,VALID,18.5754,VALID,193,VALID,0.680556,
2000-11-02, 03:04:00,VALID,916.323,VALID,0,VALID,98.4591,VALID,-0.101885,VALID,18.5751,VALID,189,VALID,0.55736,
2000-11-02, 03:05:00,VALID,916.325,VALID,0,VALID,98.4934,VALID,-0.0849042,VALID,18.5786,VALID,185,VALID,0.491554,
2000-11-02, 03:06:00,VALID,916.318,VALID,0,VALID,98.3014,VALID,-0.101885,VALID,18.5202,VALID,174,VALID,0.303125,
2000-11-02, 03:07:00,VALID,916.316,VALID,0,VALID,98.276,VALID,-0.0849042,VALID,18.4815,VALID,174,VALID,0.223884,
2000-11-02, 03:08:00,VALID,916.286,VALID,0,VALID,98.2518,VALID,0.0169808,VALID,18.4674,VALID,174,VALID,0,
2000-11-02, 03:09:00,VALID,916.266,VALID,0,VALID,98.3065,VALID,0,VALID,18.4572,VALID,174,VALID,0,
2000-11-02, 03:10:00,VALID,916.247,VALID,0,VALID,98.379,VALID,0,VALID,18.4773,VALID,174,VALID,0,
2000-11-02, 03:11:00,VALID,916.229,VALID,0,VALID,98.4616,VALID,0,VALID,18.4898,VALID,174,VALID,0,
2000-11-02, 03:12:00,VALID,916.217,VALID,0,VALID,98.4998,VALID,0,VALID,18.5027,VALID,174,VALID,0,
2000-11-02, 03:13:00,VALID,916.216,VALID,0,VALID,98.4769,VALID,0,VALID,18.4995,VALID,174,VALID,0,
2000-11-02, 03:14:00,VALID,916.21,VALID,0,VALID,98.6104,VALID,0.0339617,VALID,18.538,VALID,174,VALID,0,
2000-11-02, 03:15:00,VALID,916.219,VALID,0,VALID,98.6435,VALID,0,VALID,18.5837,VALID,174,VALID,0,
2000-11-02, 03:16:00,VALID,916.221,VALID,0,VALID,98.604,VALID,0.0339617,VALID,18.5901,VALID,174,VALID,0,
2000-11-02, 03:17:00,VALID,916.226,VALID,0,VALID,98.5303,VALID,-0.0169808,VALID,18.5869,VALID,174,VALID,0,
2000-11-02, 03:18:00,VALID,916.203,VALID,0,VALID,98.5137,VALID,-0.0169808,VALID,18.5899,VALID,174,VALID,0,
2000-11-02, 03:19:00,VALID,916.19,VALID,0,VALID,98.5125,VALID,0,VALID,18.6028,VALID,174,VALID,0,
2000-11-02, 03:20:00,VALID,916.169,VALID,0,VALID,98.4883,VALID,0,VALID,18.6125,VALID,174,VALID,0,
2000-11-02, 03:21:00,VALID,916.167,VALID,0,VALID,98.44,VALID,0,VALID,18.6127,VALID,174,VALID,0,
2000-11-02, 03:22:00,VALID,916.175,VALID,0,VALID,98.4057,VALID,0,VALID,18.6127,VALID,174,VALID,0,
2000-11-02, 03:23:00,VALID,916.173,VALID,0,VALID,98.3764,VALID,0,VALID,18.6028,VALID,174,VALID,0,
2000-11-02, 03:24:00,VALID,916.153,VALID,0,VALID,98.2963,VALID,0,VALID,18.5936,VALID,174,VALID,0,
2000-11-02, 03:25:00,VALID,916.142,VALID,0,VALID,98.2276,VALID,-0.0169808,VALID,18.5772,VALID,174,VALID,0,
2000-11-02, 03:26:00,VALID,916.116,VALID,0,VALID,98.2124,VALID,0.0169808,VALID,18.574,VALID,174,VALID,0,
2000-11-02, 03:27:00,VALID,916.106,VALID,0,VALID,98.2302,VALID,0,VALID,18.5772,VALID,174,VALID,0,
2000-11-02, 03:28:00,VALID,916.091,VALID,0,VALID,98.1081,VALID,0,VALID,18.5645,VALID,174,VALID,0,
2000-11-02, 03:29:00,VALID,916.079,VALID,0,VALID,98.0216,VALID,-0.0169808,VALID,18.5481,VALID,174,VALID,0,
2000-11-02, 03:30:00,VALID,916.073,VALID,0,VALID,97.9631,VALID,0,VALID,18.5387,VALID,174,VALID,0,
2000-11-02, 03:31:00,VALID,916.051,VALID,0,VALID,97.8856,VALID,0,VALID,18.5221,VALID,174,VALID,0,
2000-11-02, 03:32:00,VALID,916.037,VALID,0,VALID,97.8512,VALID,-0.0169808,VALID,18.5292,VALID,174,VALID,0,
2000-11-02, 03:33:00,VALID,916.018,VALID,0,VALID,97.8398,VALID,0,VALID,18.5126,VALID,174,VALID,0,
2000-11-02, 03:34:00,VALID,916.002,VALID,0,VALID,97.9263,VALID,0,VALID,18.5384,VALID,174,VALID,0,
2000-11-02, 03:35:00,VALID,915.98,VALID,0,VALID,98.0229,VALID,-0.0339617,VALID,18.5678,VALID,174,VALID,0,
2000-11-02, 03:36:00,VALID,915.981,VALID,0,VALID,98.0255,VALID,0,VALID,18.574,VALID,174,VALID,0,
2000-11-02, 03:37:00,VALID,915.972,VALID,0,VALID,98.0026,VALID,-0.0169808,VALID,18.5837,VALID,174,VALID,0,
2000-11-02, 03:38:00,VALID,915.98,VALID,0,VALID,97.9644,VALID,0,VALID,18.5772,VALID,174,VALID,0,
2000-11-02, 03:39:00,VALID,915.968,VALID,0,VALID,97.9657,VALID,0.0169808,VALID,18.5869,VALID,174,VALID,0,
2000-11-02, 03:40:00,VALID,915.966,VALID,0,VALID,97.9581,VALID,-0.0169808,VALID,18.5668,VALID,174,VALID,0,
2000-11-02, 03:41:00,VALID,915.952,VALID,0,VALID,97.8983,VALID,0,VALID,18.5673,VALID,174,VALID,0,
2000-11-02, 03:42:00,VALID,915.946,VALID,0,VALID,97.7635,VALID,0,VALID,18.5479,VALID,174,VALID,0,
2000-11-02, 03:43:00,VALID,915.923,VALID,0,VALID,97.6427,VALID,0.0169808,VALID,18.5355,VALID,174,VALID,0,
2000-11-02, 03:44:00,VALID,915.92,VALID,0,VALID,97.5779,VALID,0.0339617,VALID,18.5124,VALID,174,VALID,0,